When you browse on this site, cookies collect data to enhance your experience and personalize the content and advertising you see.
Visit our Privacy Policy to learn more. By continuing to use the site, you agree to this use of cookies and data.
  • In Slovakia
  • List of Countries
  • For 7 days
  • Water Temperature
  • Satellite Maps
  • Weather Map
  • Weather Widgets
  • user-avatar
    Login

    Hourly Weather Zaranj

    Today, 16 July, Tuesday

    Time Temperature Precipitation Wind Pressure Humidity
    00:00 +39°C° 0 mm 13 mps 705 mmHg 14%
    01:00 +38°C° 0 mm 13 mps 705 mmHg 15%
    02:00 +37°C° 0 mm 13 mps 705 mmHg 18%
    03:00 +36°C° 0 mm 12 mps 705 mmHg 22%
    04:00 +34°C° 0 mm 10 mps 705 mmHg 27%
    05:00 +36°C° 0 mm 10 mps 706 mmHg 26%
    06:00 +36°C° 0 mm 10 mps 706 mmHg 25%
    07:00 +37°C° 0 mm 9 mps 707 mmHg 25%
    08:00 +39°C° 0 mm 9 mps 707 mmHg 20%
    09:00 +41°C° 0 mm 8 mps 708 mmHg 15%
    10:00 +45°C° 0 mm 7 mps 708 mmHg 10%
    11:00 +46°C° 0 mm 6 mps 708 mmHg 9%
    12:00 +48°C° 0 mm 5 mps 707 mmHg 7%
    13:00 +49°C° 0 mm 4 mps 707 mmHg 6%
    14:00 +50°C° 0 mm 3 mps 707 mmHg 5%
    15:00 +50°C° 0 mm 3 mps 706 mmHg 5%
    16:00 +51°C° 0 mm 3 mps 706 mmHg 4%
    17:00 +46°C° 0 mm 2 mps 706 mmHg 5%
    18:00 +42°C° 0 mm 2 mps 705 mmHg 6%
    19:00 +39°C° 0 mm 1 mps 705 mmHg 7%
    20:00 +39°C° 0 mm 3 mps 705 mmHg 8%
    21:00 +40°C° 0 mm 6 mps 706 mmHg 9%
    22:00 +40°C° 0 mm 8 mps 706 mmHg 10%
    23:00 +39°C° 0 mm 8 mps 706 mmHg 11%

    Tomorrow, 17 July, Wednesday

    Time Temperature Precipitation Wind Pressure Humidity
    00:00 +38°C° 0 mm 8 mps 706 mmHg 12%
    01:00 +37°C° 0 mm 8 mps 706 mmHg 12%
    02:00 +37°C° 0 mm 8 mps 706 mmHg 12%
    03:00 +35°C° 0 mm 7 mps 706 mmHg 12%
    04:00 +35°C° 0 mm 7 mps 706 mmHg 13%
    05:00 +35°C° 0 mm 7 mps 707 mmHg 12%
    06:00 +36°C° 0 mm 6 mps 707 mmHg 12%
    07:00 +36°C° 0 mm 6 mps 708 mmHg 12%
    08:00 +40°C° 0 mm 6 mps 708 mmHg 10%
    09:00 +42°C° 0 mm 6 mps 708 mmHg 8%
    10:00 +46°C° 0 mm 6 mps 709 mmHg 6%
    11:00 +47°C° 0 mm 6 mps 708 mmHg 5%
    12:00 +49°C° 0 mm 6 mps 708 mmHg 4%
    13:00 +51°C° 0 mm 6 mps 708 mmHg 4%
    14:00 +52°C° 0 mm 5 mps 707 mmHg 3%
    15:00 +52°C° 0 mm 5 mps 707 mmHg 3%
    16:00 +52°C° 0 mm 4 mps 707 mmHg 3%
    17:00 +49°C° 0 mm 4 mps 706 mmHg 3%
    18:00 +45°C° 0 mm 4 mps 706 mmHg 4%
    19:00 +42°C° 0 mm 3 mps 706 mmHg 5%
    20:00 +42°C° 0 mm 6 mps 706 mmHg 6%
    21:00 +41°C° 0 mm 8 mps 706 mmHg 8%
    22:00 +42°C° 0 mm 10 mps 707 mmHg 9%
    23:00 +40°C° 0 mm 10 mps 707 mmHg 10%

    Day after tomorrow, 18 July, Thursday

    Time Temperature Precipitation Wind Pressure Humidity
    00:00 +39°C° 0 mm 10 mps 707 mmHg 11%
    01:00 +38°C° 0 mm 9 mps 707 mmHg 12%
    02:00 +37°C° 0 mm 9 mps 707 mmHg 12%
    03:00 +37°C° 0 mm 8 mps 707 mmHg 13%
    04:00 +35°C° 0 mm 8 mps 707 mmHg 13%
    05:00 +37°C° 0 mm 8 mps 707 mmHg 12%
    06:00 +38°C° 0 mm 8 mps 707 mmHg 12%
    07:00 +38°C° 0 mm 8 mps 708 mmHg 11%
    08:00 +41°C° 0 mm 8 mps 708 mmHg 10%
    09:00 +44°C° 0 mm 7 mps 708 mmHg 8%
    10:00 +46°C° 0 mm 7 mps 708 mmHg 6%
    11:00 +49°C° 0 mm 7 mps 708 mmHg 5%
    12:00 +49°C° 0 mm 6 mps 708 mmHg 4%
    13:00 +52°C° 0 mm 6 mps 707 mmHg 3%
    14:00 +53°C° 0 mm 5 mps 707 mmHg 3%
    15:00 +52°C° 0 mm 4 mps 706 mmHg 3%
    16:00 +52°C° 0 mm 3 mps 706 mmHg 3%
    17:00 +48°C° 0 mm 3 mps 706 mmHg 4%
    18:00 +43°C° 0 mm 2 mps 705 mmHg 4%
    19:00 +39°C° 0 mm 1 mps 705 mmHg 5%
    20:00 +40°C° 0 mm 4 mps 705 mmHg 7%
    21:00 +41°C° 0 mm 6 mps 706 mmHg 9%
    22:00 +42°C° 0 mm 9 mps 706 mmHg 10%
    23:00 +40°C° 0 mm 9 mps 706 mmHg 11%

    19 July, Friday

    Time Temperature Precipitation Wind Pressure Humidity
    00:00 +40°C° 0 mm 9 mps 706 mmHg 11%
    01:00 +39°C° 0 mm 9 mps 706 mmHg 12%
    02:00 +38°C° 0 mm 9 mps 706 mmHg 12%
    03:00 +37°C° 0 mm 8 mps 706 mmHg 13%
    04:00 +35°C° 0 mm 8 mps 706 mmHg 14%
    05:00 +37°C° 0 mm 8 mps 707 mmHg 13%
    06:00 +37°C° 0 mm 8 mps 707 mmHg 13%
    07:00 +38°C° 0 mm 8 mps 707 mmHg 12%
    08:00 +41°C° 0 mm 7 mps 708 mmHg 10%
    09:00 +44°C° 0 mm 7 mps 708 mmHg 8%
    10:00 +47°C° 0 mm 7 mps 708 mmHg 6%
    11:00 +48°C° 0 mm 6 mps 708 mmHg 5%
    12:00 +51°C° 0 mm 6 mps 708 mmHg 4%
    13:00 +53°C° 0 mm 5 mps 707 mmHg 3%
    14:00 +53°C° 0 mm 5 mps 707 mmHg 3%
    15:00 +53°C° 0 mm 4 mps 707 mmHg 3%
    16:00 +53°C° 0 mm 4 mps 706 mmHg 3%
    17:00 +52°C° 0 mm 5 mps 706 mmHg 4%
    18:00 +49°C° 0 mm 6 mps 706 mmHg 6%
    19:00 +46°C° 0 mm 7 mps 706 mmHg 7%
    20:00 +45°C° 0 mm 8 mps 706 mmHg 8%
    21:00 +45°C° 0 mm 9 mps 707 mmHg 9%
    22:00 +44°C° 0 mm 11 mps 707 mmHg 10%
    23:00 +43°C° 0 mm 11 mps 707 mmHg 11%

    20 July, Saturday

    Time Temperature Precipitation Wind Pressure Humidity
    00:00 +42°C° 0 mm 10 mps 707 mmHg 12%
    01:00 +40°C° 0 mm 10 mps 706 mmHg 13%
    02:00 +39°C° 0 mm 10 mps 706 mmHg 14%
    03:00 +38°C° 0 mm 9 mps 706 mmHg 15%
    04:00 +37°C° 0 mm 8 mps 706 mmHg 15%
    05:00 +37°C° 0 mm 9 mps 707 mmHg 14%
    06:00 +38°C° 0 mm 9 mps 707 mmHg 13%
    07:00 +39°C° 0 mm 10 mps 708 mmHg 12%
    08:00 +43°C° 0 mm 9 mps 708 mmHg 10%
    09:00 +45°C° 0 mm 9 mps 709 mmHg 8%
    10:00 +49°C° 0 mm 9 mps 709 mmHg 6%
    11:00 +51°C° 0 mm 8 mps 709 mmHg 5%
    12:00 +52°C° 0 mm 7 mps 708 mmHg 4%
    13:00 +54°C° 0 mm 6 mps 708 mmHg 3%
    14:00 +54°C° 0 mm 5 mps 708 mmHg 3%
    15:00 +55°C° 0 mm 5 mps 707 mmHg 3%
    16:00 +55°C° 0 mm 4 mps 707 mmHg 3%
    17:00 +52°C° 0 mm 5 mps 707 mmHg 5%
    18:00 +48°C° 0 mm 5 mps 706 mmHg 6%
    19:00 +45°C° 0 mm 6 mps 706 mmHg 8%
    20:00 +45°C° 0 mm 7 mps 707 mmHg 8%
    21:00 +44°C° 0 mm 9 mps 707 mmHg 8%
    22:00 +44°C° 0 mm 11 mps 707 mmHg 8%
    23:00 +43°C° 0 mm 11 mps 707 mmHg 9%

    21 July, Sunday

    Time Temperature Precipitation Wind Pressure Humidity
    00:00 +42°C° 0 mm 11 mps 707 mmHg 9%
    01:00 +41°C° 0 mm 12 mps 706 mmHg 10%
    02:00 +41°C° 0 mm 12 mps 707 mmHg 12%
    03:00 +39°C° 0 mm 13 mps 707 mmHg 14%
    04:00 +40°C° 0 mm 14 mps 707 mmHg 16%
    05:00 +40°C° 0 mm 14 mps 707 mmHg 18%
    06:00 +40°C° 0 mm 14 mps 708 mmHg 19%
    07:00 +40°C° 0 mm 14 mps 708 mmHg 21%
    08:00 +43°C° 0 mm 13 mps 709 mmHg 16%
    09:00 +47°C° 0 mm 12 mps 709 mmHg 12%
    10:00 +49°C° 0 mm 11 mps 709 mmHg 7%
    11:00 +51°C° 0 mm 9 mps 709 mmHg 6%
    12:00 +52°C° 0 mm 8 mps 708 mmHg 5%
    13:00 +53°C° 0 mm 6 mps 708 mmHg 4%
    14:00 +54°C° 0 mm 5 mps 708 mmHg 3%
    15:00 +54°C° 0 mm 5 mps 707 mmHg 3%
    16:00 +54°C° 0 mm 5 mps 707 mmHg 3%
    17:00 +50°C° 0 mm 5 mps 706 mmHg 4%
    18:00 +48°C° 0 mm 5 mps 706 mmHg 6%
    19:00 +45°C° 0 mm 5 mps 706 mmHg 7%
    20:00 +45°C° 0 mm 8 mps 706 mmHg 9%
    21:00 +44°C° 0 mm 11 mps 707 mmHg 12%
    22:00 +45°C° 0 mm 14 mps 707 mmHg 14%
    23:00 +43°C° 0 mm 15 mps 707 mmHg 16%
    Show more